SCP
0 0 0 0 0 0 0 0 0 0 0 0 0 0 0 0 0 0 0 0 0 0 0 0 0 0 0 0 0 0 0 0 0 0 0 0 0 0 0 0 0 0 0 0 0 0 0 0 0
0 0 0 0 0 0 0 0 0 0 0 0 0 0 0 0 0 0 0 0 0 0 0 0 0 0 0 0 0 0 0 0 0 0 0 0 0 0 0 0 0 0 0 0 0 0 0 0 0
0 0 0 0 0 0 0 0 0 0 0 0 0 0 0 0 0 0 -0 0 0 0 0 0 0 0 0 0 0 0 0 0 0 0 0 0 0 0 0 0 0 0 0 0 0 0 0 0 0
0 0 0 0 0 0 0 0 0 0 0 0 0 0 0 0 0 0 0 0 0 -0 -0 0 0 0 0 0 0 0 0 0 0 0 0 0 0 0 0 0 0 0 0 0 0 0 0 0 0
0 0 0 0 0 0 0 0 0 0 0 0 0 0 0 0 0 0 0 0 0 -0 -0 0 0 0 0 0 0 0 0 0 0 0 0 0 0 0 0 0 0 0 0 0 0 0 0 0 0
0 0 0 0 0 0 0 0 0 0 0 0 0 0 0 0 0 0 0 0 0 -0 -0 -0 0 0 0 0 0 0 0 0 0 0 0 0 0 0 0 0 0 0 0 0 0 0 0 0 0
0 0 0 0 0 0 0 0 0 0 0 0 0 0 0 0 0 0 0 0 0 0 -0 -0 0 0 0 0 0 0 0 0 0 0 0 0 0 0 0 0 0 0 0 0 0 0 0 0 0
0 0 0 0 0 0 0 0 0 0 0 0 0 0 0 0 0 0 0 0 0 0 0 0 0 0 0 0 0 0 0 0 0 0 0 0 0 0 0 0 0 0 0 0 0 0 0 0 0
0 0 0 0 0 0 0 0 0 0 0 0 0 0 0 0 0 0 0 0 0 0 0 0 0 0 0 0 0 0 0 0 0 0 0 0 0 0 0 0 0 0 0 0 0 0 0 0 0
0 0 0 0 0 0 0 0 0 0 0 0 0 0 0 0 0 0 0 0 0 0 0 0 0 0 0 0 0 0 0 0 0 0 0 0 0 0 0 0 0 0 0 0 0 0 0 0 0
0 0 0 0 0 0 0 0 0 0 0 0 0 0 0 0 0 0 0 0 0 0 0 0 0 0 0 0 0 0 0 0 0 0 0 0 0 0 0 0 0 0 0 0 0 0 0 0 0
0 0 0 0 0 0 0 0 0 0 0 0 0 0 0 0 0 0 0 0 0 0 0 0 0 0 0 0 0 0 0 0 0 0 0 0 0 0 0 0 0 0 0 0 0 0 0 0 0
0 0 0 0 0 0 0 0 0 0 0 0 0 0 0 0 0 0 0 0 0 0 0 0 0 0 0 0 0 0 0 0 0 0 0 0 0 0 0 0 0 0 0 0 0 0 0 0 0
0 0 0 0 0 0 0 0 0 0 0 0 0 0 0 0 0 0 0 0 0 0 0 0 0 0 0 0 0 0 0 0 0 0 0 0 0 0 0 0 0 0 0 0 0 0 0 0 0
0 0 0 0 0 0 0 0 0 0 0 0 0 0 0 0 0 0 0 0 0 0 0 0 0 0 0 0 0 0 0 0 0 0 0 0 0 0 0 0 0 0 0 0 0 0 0 0 0
0 0 0 0 0 0 0 0 0 0 0 0 0 0 0 0 0 0 0 0 0 0 0 0 0 0 0 0 0 0 0 0 0 0 0 0 0 0 0 0 0 0 0 0 0 0 0 0 0
0 0 0 0 0 0 0 0 0 0 0 0 0 0 0 0 0 0 0 0 0 0 0 0 0 0 0 0 0 0 0 0 0 0 0 0 0 0 0 0 0 0 0 0 0 0 0 0 0
0 0 0 0 0 0 0 0 0 0 0 0 0 0 0 0 0 0 0 0 0 0 0 0 0 0 0 0 0 0 0 0 0 0 0 0 0 0 0 0 0 0 0 0 0 0 0 0 0
0 0 0 0 0 0 0 0 0 0 0 0 0 0 0 0 0 0 0 0 0 0 0 0 0 0 0 0 0 0 0 0 0 0 0 0 0 0 0 0 0 0 0 0 0 0 0 0 0
0 0 0 0 0 0 0 0 0 0 0 0 0 0 0 0 0 0 0 0 0 0 0 0 0 0 0 0 0 0 0 0 0 0 0 0 0 0 0 0 0 0 0 0 0 0 0 0 0
0 0 0 0 0 0 0 0 0 0 0 0 0 0 0 0 0 0 0 0 0 0 0 0 0 0 0 0 0 0 0 0 0 0 0 0 0 0 0 0 0 0 0 0 0 0 0 0 0
0 0 0 0 0 0 0 0 0 0 0 0 0 0 0 0 0 0 0 0 0 0 0 0 0 0 0 0 0 0 0 0 0 0 0 0 0 0 0 0 0 0 0 0 0 0 0 0 0
0 0 0 0 0 0 0 0 0 0 0 0 0 0 0 0 0 0 0 0 0 0 0 0 0 0 0 0 0 0 0 0 0 0 0 0 0 0 0 0 0 0 0 0 0 0 0 0 0
0 0 0 0 0 0 0 0 0 0 0 0 0 0 0 0 0 0 0 0 0 0 0 0 0 0 0 0 0 0 0 0 0 0 0 0 0 0 0 0 0 0 0 0 0 0 0 0 0
0 0 0 0 0 0 0 0 0 0 0 0 0 0 0 0 0 0 0 0 0 0 0 0 0 0 0 0 0 0 0 0 0 0 0 0 0 0 0 0 0 0 0 0 0 0 0 0 0
0 0 0 0 0 0 0 0 0 0 0 0 0 0 0 0 0 0 0 0 0 0 0 0 0 0 0 0 0 0 0 0 0 0 0 0 0 0 0 0 0 0 0 0 0 0 0 0 -0
0 0 0 0 0 0 0 0 0 0 0 0 0 0 0 0 0 0 0 0 0 0 0 0 0 0 0 0 0 0 0 0 0 0 0 0 0 0 0 0 0 0 0 0 0 0 0 0 0
0 0 0 0 0 0 0 0 0 0 0 0 0 0 0 0 0 0 0 0 0 0 0 0 0 0 0 0 0 0 0 0 0 0 0 0 0 0 0 0 0 0 0 0 0 0 0 0 0
0 0 0 0 0 0 0 0 0 0 0 0 0 0 0 0 0 0 0 0 0 0 0 0 0 0 0 0 0 0 0 0 0 0 0 0 0 0 0 0 0 0 0 0 0 0 0 0 0
0 0 0 0 0 0 0 0 0 0 0 0 0 0 0 0 0 0 0 0 0 0 0 0 0 0 0 0 0 0 0 0 0 0 0 0 0 0 0 0 0 0 0 0 0 0 0 0 0
Wind_Speed
1 3 3 4 7 6 3 2 1 1 2 2 3 5 5 4 2 2 1 0 0 1 2 2 4 5 7 7 7 8 8 8 8 8 8 9 9 9 10 10 10 10 10 10 10 10 10 11 11
1 2 4 6 6 4 2 1 1 1 3 3 4 4 4 3 2 2 0 0 1 1 1 2 4 5 6 7 7 7 8 8 8 8 8 8 8 9 9 10 9 10 10 10 10 10 10 11 11
2 4 5 5 4 3 1 1 1 2 3 2 3 4 3 2 1 1 1 1 1 1 2 2 4 5 5 6 7 7 7 7 7 7 7 8 8 9 9 10 9 10 10 10 10 11 11 10 11
3 5 6 6 4 0 2 1 2 3 3 4 3 4 2 2 1 2 2 2 2 2 2 2 4 5 5 6 7 7 7 7 7 7 7 8 8 9 9 10 10 10 10 10 11 11 11 11 10
4 5 6 4 2 2 1 0 1 3 3 3 3 4 2 3 2 3 3 3 2 1 2 2 4 4 5 5 6 7 7 7 7 7 7 7 8 8 9 9 9 10 10 10 11 12 11 11 10
5 5 5 2 1 2 1 1 2 3 3 2 3 3 1 2 2 2 2 2 2 1 2 2 4 4 5 5 6 6 7 6 6 7 7 7 8 8 9 9 9 9 10 10 11 12 12 12 12
5 5 4 3 1 1 1 1 3 3 3 2 3 4 0 1 1 2 3 2 2 2 2 3 3 4 5 5 5 6 6 6 6 6 6 7 7 8 8 8 9 9 10 10 11 11 12 13 13
5 5 3 2 2 0 0 2 2 3 2 2 3 5 3 3 2 3 3 3 2 2 2 2 3 3 3 3 5 6 6 7 7 6 6 7 7 7 8 7 8 9 10 10 11 11 12 12 12
4 6 2 3 4 2 1 2 1 2 4 2 1 2 3 4 5 4 3 2 2 1 1 2 2 3 3 2 4 5 6 7 7 6 7 6 4 4 4 6 8 9 9 10 10 10 11 12 12
5 4 3 3 4 3 2 2 2 3 3 2 2 2 4 5 5 4 2 1 1 1 1 0 1 1 2 2 3 3 3 4 4 4 4 3 3 3 5 8 9 10 10 10 11 11 11 8 5
3 3 1 1 3 3 3 2 2 4 1 3 4 4 5 5 4 3 3 2 2 2 1 0 0 0 1 1 2 2 2 2 3 4 4 3 3 3 4 3 4 5 7 5 7 7 5 5 4
3 1 2 1 2 2 3 2 2 2 3 3 5 6 6 5 4 4 3 2 2 1 1 1 1 1 1 1 1 1 1 2 2 2 3 3 2 3 3 3 3 3 3 4 4 4 5 5 5
2 1 1 2 3 3 4 3 2 1 0 3 5 5 5 5 3 2 2 2 2 2 1 1 2 2 1 1 1 2 1 1 1 2 2 3 2 2 3 2 3 3 3 3 4 4 5 5 5
1 2 2 2 2 1 3 1 1 2 2 4 5 4 4 4 3 2 2 2 2 2 2 2 2 2 2 1 1 1 1 1 2 2 2 2 2 2 2 2 3 3 3 3 3 4 4 4 4
3 3 3 1 1 1 3 2 2 2 4 4 3 3 3 3 3 3 3 3 3 3 2 2 2 2 2 2 1 1 1 2 2 1 2 2 2 3 3 3 2 2 2 4 4 4 4 4 4
3 3 1 2 1 1 3 3 4 2 6 4 3 3 3 2 3 3 3 2 3 3 2 2 3 3 3 2 2 1 2 2 2 1 1 2 3 3 3 3 2 2 3 3 3 3 4 4 4
3 1 1 3 1 2 3 4 3 2 5 4 4 3 3 2 2 2 3 3 3 3 3 3 3 3 3 2 2 2 2 2 2 2 2 2 3 3 3 3 2 3 3 3 3 3 3 3 3
2 1 1 2 1 2 2 4 4 2 5 5 4 4 3 4 4 3 2 3 3 3 3 3 3 3 3 2 2 2 3 2 2 2 2 2 3 3 3 3 3 3 3 3 3 4 3 3 3
3 2 2 3 2 2 3 5 5 2 3 4 4 4 4 5 3 1 2 3 3 3 3 3 3 2 2 2 1 1 1 1 1 1 2 2 3 3 3 3 3 3 3 3 3 3 4 2 2
3 2 2 2 0 2 2 5 5 3 4 5 6 6 6 4 2 1 2 3 3 4 3 3 3 3 3 2 1 1 1 1 0 1 2 2 2 2 3 3 3 3 3 3 3 3 2 1 2
2 4 4 3 1 1 1 5 4 3 2 3 4 5 5 6 6 4 3 3 4 4 4 4 3 3 3 2 2 2 2 2 2 2 2 1 2 2 2 3 3 3 2 2 2 2 3 2 1
3 4 4 3 1 2 1 3 6 3 3 3 4 4 5 6 5 5 4 4 5 5 4 3 3 3 3 3 3 3 2 1 1 0 0 1 2 2 2 2 3 2 2 2 1 1 1 2 1
4 1 2 1 2 0 0 2 7 2 4 5 5 6 6 6 6 6 6 6 5 4 4 3 3 3 2 3 4 4 2 1 1 1 1 1 1 1 2 2 2 2 2 2 2 2 2 2 2
3 4 4 3 3 1 3 3 6 4 5 4 4 5 5 5 5 5 4 4 3 3 3 3 4 3 3 3 3 4 4 3 2 1 1 1 1 1 1 2 2 2 2 2 2 2 2 2 2
4 5 3 3 2 4 2 3 8 5 4 5 5 5 5 4 5 5 5 4 4 4 4 4 4 3 3 3 3 3 4 4 4 3 2 1 0 0 1 1 1 1 1 2 2 2 2 1 2
3 6 6 3 4 4 2 5 6 3 2 2 2 3 3 3 4 5 5 5 5 5 5 4 4 4 3 3 3 3 3 3 2 2 2 2 2 2 1 1 1 1 2 2 2 2 1 1 1
4 3 4 5 1 2 5 5 6 2 2 1 0 1 2 3 3 4 4 4 4 5 5 5 5 4 4 4 4 3 3 3 3 2 2 1 1 1 2 2 2 1 2 2 2 1 1 1 1
3 6 4 4 2 3 5 4 4 4 4 2 1 2 2 2 2 2 3 3 4 4 3 3 4 4 3 3 3 3 3 3 3 2 2 2 1 1 2 2 2 2 2 2 2 2 1 2 1
2 3 4 3 4 4 3 6 5 5 5 3 3 2 2 3 3 3 2 2 3 3 3 3 3 3 2 2 2 2 2 2 2 2 3 2 2 2 2 2 2 2 2 2 2 2 2 2 1
3 4 6 4 3 3 3 7 3 2 2 2 2 1 1 2 2 2 2 2 2 3 3 3 3 3 3 3 2 2 2 2 2 2 2 2 2 2 2 3 2 2 2 2 2 2 2 2 2
Wind_Direction
26 80 79 60 54 53 49 357 5 42 51 42 55 76 88 78 81 121 272 276 71 16 351 356 41 49 50 53 59 65 66 67 69 74 74 73 73 73 74 74 74 75 77 79 81 84 86 87 87
94 89 58 59 74 68 9 333 57 89 139 129 67 69 74 64 60 102 330 292 82 50 9 357 48 56 57 58 65 67 69 68 70 74 74 74 72 73 74 72 70 74 75 77 80 84 84 86 87
85 59 75 66 80 126 149 248 128 82 103 103 74 55 75 84 97 165 227 157 85 44 10 348 56 64 63 61 64 67 71 69 70 72 75 75 74 74 76 76 71 72 73 74 77 82 82 83 86
76 46 55 66 72 147 181 199 144 110 77 57 86 67 52 24 155 173 144 125 96 42 12 3 69 70 68 62 64 68 69 66 66 68 74 76 76 76 74 76 75 73 73 73 75 79 80 81 85
62 70 62 57 33 354 3 268 102 89 75 61 85 92 38 351 54 115 127 126 107 49 15 11 62 68 68 66 65 67 66 64 63 65 71 75 76 76 76 73 73 73 72 73 73 74 78 79 80
58 66 80 84 15 354 0 41 91 86 94 93 91 101 63 345 77 126 124 116 107 76 36 29 41 54 58 62 62 60 61 61 62 64 67 71 75 74 75 74 72 71 72 73 72 71 72 74 77
95 87 108 129 99 8 62 87 103 112 102 122 125 108 71 310 230 113 93 91 85 67 52 27 17 23 33 42 56 56 54 54 57 64 66 70 73 71 69 69 71 72 73 74 74 72 72 72 75
112 96 88 113 138 236 69 91 93 113 113 105 116 135 188 219 142 93 75 64 62 59 47 28 19 19 18 16 38 50 51 51 52 59 66 68 64 63 61 58 68 73 76 77 76 75 73 72 75
82 79 127 184 173 189 144 112 72 71 93 74 85 165 184 137 114 94 70 46 47 61 24 22 22 15 15 17 35 40 43 41 43 46 60 59 44 41 47 53 68 73 78 79 79 78 73 71 70
78 111 192 197 176 163 137 128 138 96 78 64 56 62 111 121 123 126 132 147 174 208 276 24 17 7 12 19 37 32 36 36 39 42 47 49 47 43 53 50 63 71 74 74 74 73 69 65 55
99 147 180 153 160 140 122 102 110 125 168 200 180 164 138 132 141 156 171 186 200 204 205 161 188 28 35 30 45 40 39 40 41 48 55 58 52 44 45 41 41 48 59 58 63 62 58 61 60
99 90 146 157 125 119 133 128 107 157 221 200 171 156 146 150 172 183 186 196 188 167 203 181 132 98 65 60 58 58 52 47 43 45 61 69 62 52 50 48 41 47 52 64 65 66 63 64 62
88 77 67 101 97 112 107 115 137 240 259 112 120 129 151 166 181 188 187 181 167 175 186 173 143 136 117 81 61 70 63 67 57 50 59 78 81 72 63 58 55 55 60 68 72 72 70 65 62
114 91 68 68 83 89 114 86 108 249 129 117 129 153 170 179 182 165 160 171 183 186 181 160 145 142 120 101 81 74 64 69 68 61 59 79 91 92 83 72 65 59 64 73 77 78 77 67 64
90 73 33 18 117 161 109 360 255 213 134 137 160 177 179 191 185 192 195 185 185 183 168 153 144 119 112 105 88 74 67 76 69 55 60 81 91 98 98 88 74 66 75 83 83 75 74 74 65
57 60 15 299 160 163 126 263 273 162 145 167 191 195 193 212 211 215 201 182 170 157 145 146 133 113 105 99 88 72 70 76 69 55 59 79 89 99 99 94 84 84 84 86 89 82 80 71 67
35 46 286 299 225 142 154 240 274 152 161 185 201 207 205 217 236 225 198 180 169 164 153 135 114 117 110 95 78 69 66 65 58 54 58 79 88 93 97 95 90 90 86 81 95 79 87 87 77
216 216 249 258 263 125 186 253 274 190 183 198 204 208 210 218 230 216 190 174 163 155 147 134 120 111 98 80 68 58 54 45 44 48 59 79 86 94 96 95 93 94 91 80 84 88 76 82 85
168 168 239 259 229 157 222 258 272 221 200 209 210 212 219 228 238 203 172 158 151 142 141 141 133 126 112 94 90 81 57 26 24 28 61 77 87 97 98 98 91 91 99 105 107 102 89 70 79
162 181 252 289 199 170 239 277 276 210 208 209 206 209 216 221 226 205 173 159 164 164 163 160 159 152 151 143 136 127 117 85 23 17 49 71 90 107 114 111 107 103 104 101 103 107 100 68 55
198 199 216 230 355 30 360 311 292 270 221 212 203 205 211 205 205 200 187 184 172 174 180 177 175 167 162 138 109 82 59 41 30 21 21 27 74 94 111 118 116 115 119 131 130 121 122 125 52
239 228 204 189 148 280 164 287 287 278 270 237 222 211 214 212 203 195 190 191 188 190 182 174 170 164 162 145 140 140 142 152 208 216 359 28 65 89 106 121 125 123 124 133 142 119 119 126 122
215 167 155 178 172 279 315 226 284 308 271 256 234 221 217 210 199 196 196 196 190 179 171 170 164 166 161 154 158 151 149 164 149 98 83 51 44 70 104 126 131 131 130 135 124 109 107 111 129
138 79 56 49 76 277 225 196 275 243 237 253 236 219 214 207 199 195 188 176 167 162 160 160 163 177 169 159 161 161 163 156 138 128 118 68 41 45 91 124 127 133 134 138 137 122 112 109 114
90 93 29 355 357 259 230 206 253 253 241 228 227 219 208 195 186 183 178 176 170 170 171 165 167 179 176 168 172 174 172 167 171 174 169 162 148 219 206 142 144 144 146 136 128 115 111 119 127
161 142 158 200 234 279 278 238 257 271 277 252 220 194 168 177 181 183 184 181 180 182 179 173 177 183 178 176 184 179 172 168 182 185 175 181 195 208 195 165 159 151 140 130 117 109 117 114 125
144 168 168 142 181 269 278 288 304 339 354 9 68 137 169 183 184 186 179 177 181 184 184 182 181 183 185 183 174 174 176 176 186 185 170 182 200 190 161 153 149 148 141 133 129 125 128 123 121
145 144 106 123 164 261 286 277 263 274 268 267 232 209 204 178 171 172 171 178 182 182 174 166 172 178 181 178 179 179 185 187 181 165 172 185 194 167 141 140 146 139 138 144 141 140 137 127 125
96 106 115 127 160 172 260 272 236 223 220 214 222 214 191 181 180 177 177 174 166 153 155 165 170 163 161 168 170 164 179 181 169 174 190 188 183 168 164 165 157 150 148 152 149 157 155 149 148
180 168 150 162 221 189 202 266 287 247 219 183 203 211 186 178 166 153 153 139 137 149 156 165 168 169 177 170 155 159 155 146 157 186 199 186 184 181 174 162 157 162 161 162 163 168 163 164 170